Simultaneous Nadir Overpasses (SNOs) Predictions

Prediction of SNOs between METOP-B and TERRA Satellite Orbit:

Table of predicted SNOs for the next 14.0 days since TLE Epoch: 5/11/2013
Index Date (METOP-B) Time (METOP-B) Lat,Lon (METOP-B) SZA (METOP-B ) Date (TERRA) Time (TERRA) Lat,Lon (TERRA) SZA (TERRA ) Distance(km) Time Diff (sec)
1 05/11/2013 08:49:28 -81.29, -85.54 113.72 05/11/2013 08:50:39 -81.29, -85.66 113.70 1.88 71
2 05/11/2013 09:40:08 81.30, 82.07 66.31 05/11/2013 09:40:05 81.30, 82.09 66.32 0.42 3
3 05/14/2013 04:23:52 -81.29, -19.43 114.44 05/14/2013 04:24:49 -81.29, -19.24 114.40 3.15 57
4 05/14/2013 05:14:31 81.30, 148.59 65.64 05/14/2013 05:14:15 81.29, 148.47 65.61 2.05 16
5 05/16/2013 23:58:15 -81.29, 47.42 115.04 05/16/2013 23:58:59 -81.30, 47.36 115.03 0.99 44
6 05/17/2013 00:48:55 81.30,-144.93 65.00 05/17/2013 00:48:25 81.30,-144.95 64.98 0.31 30
7 05/19/2013 19:32:39 -81.29, 113.84 115.65 05/19/2013 19:33:09 -81.29, 113.79 115.64 0.86 30
8 05/19/2013 20:23:19 81.30, -78.50 64.39 05/19/2013 20:22:35 81.29, -78.56 64.36 1.11 44
9 05/22/2013 15:07:01 -81.30,-179.40 116.17 05/22/2013 15:07:17 -81.30,-179.60 116.19 3.36 16




NCC Satellite Simultaneous Nadir Overpasses (SNOs) Prediction Service
